| time (UTC) | temp C | wind direction | speed KPH | gust KPH | rain 1hr cm | rain 24hr cm | rain mn cm | humidity % | barometer mb |
| 20260504081509 | 3 | 284 | 0.0 | 1.6 | 0.00 | 0.00 | 0.00 | 79 | 1015.0 |
| 20260504044543 | 6 | 284 | 0.0 | 0.0 | 0.00 | 0.00 | 0.00 | 71 | 1014.7 |
| 20260504043043 | 6 | 284 | 0.0 | 0.0 | 0.00 | 0.00 | 0.00 | 70 | 1014.8 |
| 20260504041542 | 6 | 284 | 0.0 | 0.0 | 0.00 | 0.00 | 0.00 | 69 | 1014.8 |
| 20260504040040 | 6 | 284 | 0.0 | 0.0 | 0.00 | 0.00 | 0.00 | 68 | 1014.7 |
| 20260504034544 | 7 | 284 | 0.0 | 0.0 | 0.00 | 0.00 | 0.00 | 67 | 1014.7 |
| 20260504033034 | 7 | 284 | 0.0 | 0.0 | 0.00 | 0.00 | 0.00 | 66 | 1014.7 |
| 20260504031534 | 7 | 284 | 0.0 | 0.0 | 0.00 | 0.00 | 0.00 | 64 | 1014.5 |
| 20260504030036 | 8 | 284 | 0.0 | 0.0 | 0.00 | 0.00 | 0.00 | 63 | 1014.4 |
| 20260504024534 | 8 | 284 | 0.0 | 0.0 | 0.00 | 0.00 | 0.00 | 62 | 1014.4 |
| 20260504023032 | 9 | 284 | 0.0 | 0.0 | 0.00 | 0.00 | 0.00 | 57 | 1014.4 |
| 20260504021532 | 10 | 284 | 0.0 | 0.0 | 0.00 | 0.00 | 0.00 | 56 | 1014.5 |
| 20260504020037 | 10 | 284 | 0.0 | 3.2 | 0.00 | 0.00 | 0.00 | 54 | 1014.4 |
| 20260504014532 | 11 | 284 | 0.0 | 1.6 | 0.00 | 0.00 | 0.00 | 53 | 1014.3 |
| 20260504013037 | 11 | 284 | 0.0 | 1.6 | 0.00 | 0.00 | 0.00 | 48 | 1014.2 |
| 20260504011531 | 12 | 284 | 0.0 | 1.6 | 0.00 | 0.00 | 0.00 | 47 | 1014.2 |
| 20260504010029 | 12 | 284 | 1.6 | 4.8 | 0.00 | 0.00 | 0.00 | 46 | 1014.1 |
| 20260504004529 | 12 | 284 | 0.0 | 3.2 | 0.00 | 0.00 | 0.00 | 44 | 1014.0 |
| 20260504003028 | 13 | 284 | 0.0 | 4.8 | 0.00 | 0.00 | 0.00 | 43 | 1013.8 |
| 20260504001534 | 13 | 286 | 1.6 | 8.0 | 0.00 | 0.00 | 0.00 | 42 | 1013.6 |
| 20260504000027 | 14 | 292 | 3.2 | 9.7 | 0.00 | 0.00 | 0.00 | 40 | 1013.4 |
| 20260503234529 | 15 | 273 | 4.8 | 16.1 | 0.00 | 0.00 | 0.00 | 39 | 1013.2 |
| 20260503233026 | 15 | 285 | 4.8 | 16.1 | 0.00 | 0.00 | 0.00 | 38 | 1013.2 |
| 20260503231528 | 16 | 311 | 11.3 | 17.7 | 0.00 | 0.00 | 0.00 | 37 | 1013.1 |
| 20260503230037 | 16 | 289 | 11.3 | 24.1 | 0.00 | 0.00 | 0.00 | 35 | 1013.1 |
| 20260503224523 | 16 | 334 | 9.7 | 24.1 | 0.00 | 0.00 | 0.00 | 35 | 1013.2 |
| 20260503223024 | 16 | 265 | 9.7 | 24.1 | 0.00 | 0.00 | 0.00 | 35 | 1013.1 |
| 20260503221524 | 17 | 324 | 9.7 | 19.3 | 0.00 | 0.00 | 0.00 | 34 | 1013.1 |
| 20260503220022 | 17 | 269 | 9.7 | 19.3 | 0.00 | 0.00 | 0.00 | 36 | 1012.9 |
| 20260503214535 | 17 | 261 | 8.0 | 22.5 | 0.00 | 0.00 | 0.00 | 36 | 1013.1 |
| 20260503213021 | 17 | 290 | 12.9 | 25.7 | 0.00 | 0.00 | 0.00 | 34 | 1013.1 |
| 20260503211520 | 17 | 292 | 6.4 | 22.5 | 0.00 | 0.00 | 0.00 | 35 | 1013.0 |
| 20260503210020 | 17 | 271 | 9.7 | 29.0 | 0.00 | 0.00 | 0.00 | 34 | 1013.1 |
| 20260503204519 | 17 | 294 | 17.7 | 24.1 | 0.00 | 0.00 | 0.00 | 34 | 1013.1 |
| 20260503203022 | 17 | 302 | 12.9 | 24.1 | 0.00 | 0.00 | 0.00 | 33 | 1013.1 |
| 20260503201517 | 17 | 314 | 14.5 | 32.2 | 0.00 | 0.00 | 0.00 | 36 | 1013.1 |
| 20260503200017 | 17 | 291 | 17.7 | 32.2 | 0.00 | 0.00 | 0.00 | 34 | 1013.5 |
| 20260503194516 | 17 | 334 | 12.9 | 24.1 | 0.00 | 0.00 | 0.00 | 33 | 1013.7 |
| 20260503193028 | 16 | 271 | 9.7 | 24.1 | 0.00 | 0.00 | 0.00 | 35 | 1013.8 |
| 20260503191532 | 16 | 287 | 8.0 | 24.1 | 0.00 | 0.00 | 0.00 | 36 | 1014.0 |
| 20260503190024 | 16 | 342 | 8.0 | 32.2 | 0.00 | 0.00 | 0.00 | 39 | 1014.0 |
| 20260503184512 | 17 | 282 | 8.0 | 20.9 | 0.00 | 0.00 | 0.00 | 34 | 1014.2 |
| 20260503183010 | 16 | 314 | 12.9 | 27.4 | 0.00 | 0.00 | 0.00 | 36 | 1014.4 |
| 20260503181509 | 16 | 6 | 4.8 | 24.1 | 0.00 | 0.00 | 0.00 | 38 | 1014.5 |
| 20260503180007 | 14 | 294 | 9.7 | 24.1 | 0.00 | 0.00 | 0.00 | 41 | 1014.5 |
| 20260503174506 | 13 | 280 | 11.3 | 20.9 | 0.00 | 0.00 | 0.00 | 41 | 1014.8 |
| 20260503173005 | 15 | 301 | 11.3 | 22.5 | 0.00 | 0.00 | 0.00 | 40 | 1014.8 |
| 20260503171504 | 14 | 334 | 16.1 | 29.0 | 0.00 | 0.00 | 0.00 | 39 | 1014.9 |
| 20260503160108 | 13 | 319 | 11.3 | 25.7 | 0.00 | 0.00 | 0.00 | 39 | 1015.6 |